Погода в Налейке

Россия / Ульяновская область     53°33′18″N   47°29′36″E
темп.,
°C
ветер,
м/с
пор.,
м/с
влажн.,
%
обл.,
%
осадки,
мм/ч
давл.,
гПа
погр.,
м
5 декабря, вс
вс501:00−2з3784100 0.0 1013537
04:00−3з3785100 0.0 1014471
07:00−4зсз268699 0.0 1015330
10:00−3з248476 0.0 1017263
13:00−2зсз2367100 0.0 1017458
16:00−2ссз1276100 0.0 101865
19:00−4ссв1185100 0.0 101922
22:00−3св1280100 0.0 1019135
6 декабря, пн
пн601:00−4с11905 0.0 102018
04:00−5с119077 0.0 102236
07:00−5ссв119299 0.0 102313
10:00−4в1183100 0.0 102540
13:00−2вюв1272100 0.0 1025216
16:00−3юв1184100 0.0 102614
19:00−4вюв1390100 0.0 102774
22:00−4юв2588100 0.0 1028235
7 декабря, вт
вт701:00−4юв378762 0.0 1028331
04:00−5юв389058 0.0 1029284
07:00−5юв31087100 0.0 1029363
10:00−5юв41282100 0.0 1028449
13:00−3ююв51374100 0.0 1027521
16:00−3юв51373100 0.0 1026523
19:00−4ююв51494100 0.6 1025436
22:00−3ююв51695100 2.3 1023529
8 декабря, ср
ср801:00−1ю51596100 1.7 1022526
04:000ю51696100 1.7 1021501
07:00+1ю51697100 0.0 1020534
10:00+1ю41696100 0.0 1021532
13:00+2ю41694100 0.0 1020578
16:00+2ю41494100 0.0 1020439
19:00+2ююв41394100 0.0 1020361
22:00+1ююв41496100 0.0 1020384
9 декабря, чт
чт901:000ююв41493100 0.0 1020377
04:000ююв31192100 0.0 1019335
07:00−1юв3993100 0.0 1019288
10:00−1юв31090100 0.0 1019338
13:000юв3888100 0.0 1019341
16:00−1вюв3791100 0.0 1018294
19:00−1вюв3893100 0.0 1018281
22:00−1юв2795100 0.0 1018295